Flag for U.S.A. Weather past 2 weeks in Columbus, Georgia, U.S.A.

Now
70 °F

Clear.


Feels Like: 65 °F
Forecast: 70 / 83 °F
Wind: 5 mph from Southeast

Location: Columbus Metropolitan Airport

Current Time: May 26, 2015 at 2:43:51 AM

Latest Report: May 26, 2015 at 1:51 AM


Visibility: 10 mi

Pressure: 30.15 "Hg

Humidity: 93%

Dew point: 68 °F

Location of ColumbusLocation

Historic Weather in Columbus — Graph

°F

Columbus temperature yesterday

Maximum temperature yesterday: 81 °F (at 12:51 PM)
Minimum temperature yesterday: 68 °F (at 3:51 AM)
Average temperature yesterday: 73 °F

Past Weeks' High & Low Weather Summary

 TemperatureHumidityPressure
High90 °F (May 11, 3:51 PM)97% (May 15, 2:51 AM)30.34 "Hg (May 15, 2:51 AM)
Low56 °F (May 22, 6:51 AM)20% (May 13, 6:51 PM)29.89 "Hg (May 20, 6:51 PM)
Average75 °F65%30.13 "Hg
* Reported May 11 12:51 AM — May 26 12:51 AM, Columbus, Weather by CustomWeather, © 2015

Note: Actual official high and low records may vary slightly from our data, if they occured in-between our weather recording intervals... More about our weather records

Advertising

Columbus weather history for previous 24 hours

 ConditionsComfort  
Time TempWeatherWind HumidityBarometerVisibility
12:51 AM
Tue, May 26
70 °FClear.6 mph93%30.15 "Hg10 mi
11:51 PM
Mon, May 25
70 °FClear.8 mph90%30.14 "Hg10 mi
10:51 PM70 °FClear.5 mph90%30.15 "Hg10 mi
9:51 PM69 °FClear.6 mph90%30.14 "Hg10 mi
8:51 PM69 °FPartly sunny.3 mph93%30.16 "Hg10 mi
7:51 PM70 °FScattered clouds.6 mph90%30.17 "Hg10 mi
6:51 PM76 °FLight rain. Partly sunny.8 mph91%30.17 "Hg10 mi
5:51 PM78 °FPassing clouds.5 mph79%30.16 "Hg10 mi
4:51 PM77 °FLight rain. Cloudy.3 mph82%30.16 "Hg9 mi
3:51 PM74 °FMostly cloudy.5 mph91%30.17 "Hg10 mi
2:51 PM80 °FOvercast.5 mph64%30.17 "Hg10 mi
1:51 PM80 °FPartly sunny.7 mph64%30.20 "Hg10 mi
12:51 PM81 °FBroken clouds.13 mph60%30.21 "Hg10 mi
11:58 AM79 °FBroken clouds.8 mph65%30.23 "Hg10 mi
10:51 AM76 °FMostly cloudy.9 mph74%30.22 "Hg10 mi
9:51 AM75 °FBroken clouds.6 mph74%30.22 "Hg10 mi
8:59 AM72 °FBroken clouds.10 mph78%30.24 "Hg10 mi
7:51 AM70 °FMostly cloudy.8 mph81%30.21 "Hg10 mi
6:51 AM69 °FOvercast.7 mph84%30.20 "Hg10 mi
5:51 AM68 °FClear.6 mph82%30.19 "Hg10 mi
4:51 AM68 °FPassing clouds.7 mph78%30.19 "Hg10 mi
3:51 AM68 °FClear.6 mph73%30.19 "Hg10 mi
2:51 AM70 °FClear.7 mph68%30.19 "Hg10 mi
Weather by CustomWeather, © 2015

See weather overviewHow to use our weather pages